DW6963 Weather Reports


Display with metric or nautical units.
time (UTC)temp
F
wind
direction
speed
MPH
gust
MPH
rain 1hr
in
rain 24hr
in
rain mn
in
humidity
%
barometer
mb
20260903012954 79 0 0.0 0.0 0.00 0.00 0.00 84 1016.8
20260903012454 79 0 0.0 0.0 0.00 0.00 0.00 84 1016.8
20260903011954 79 0 0.0 0.0 0.00 0.00 0.00 84 1016.8
20260903011454 79 0 0.0 0.0 0.00 0.00 0.00 84 1016.7
20260903010954 80 0 0.0 0.0 0.00 0.00 0.00 83 1016.6
20260903010454 80 0 0.0 0.0 0.00 0.00 0.00 83 1016.5
20260903005953 80 0 0.0 0.0 0.00 0.00 0.00 82 1016.5
20260903004954 81 0 0.0 0.0 0.00 0.00 0.00 81 1016.4
20260903003954 82 0 0.0 0.0 0.00 0.00 0.00 79 1016.3
20260903003453 82 0 0.0 0.0 0.00 0.00 0.00 79 1016.2
20260903002954 83 0 0.0 0.0 0.00 0.00 0.00 78 1016.3
20260903002454 83 0 0.0 0.0 0.00 0.00 0.00 77 1016.3
20260903001954 84 0 0.0 0.0 0.00 0.00 0.00 76 1016.2
20260903001454 84 0 0.0 0.0 0.00 0.00 0.00 75 1016.3
20260903000953 85 0 0.0 0.0 0.00 0.00 0.00 74 1016.2
20260903000454 85 0 0.0 0.0 0.00 0.00 0.00 73 1016.2
20260902235954 86 0 0.0 0.0 0.00 0.00 0.00 72 1016.1
20260902235453 87 0 0.0 0.0 0.00 0.00 0.00 72 1016.3
20260902234954 87 0 0.0 0.0 0.00 0.00 0.00 71 1016.3
20260902234454 88 0 0.0 0.0 0.00 0.00 0.00 69 1016.3
20260902233954 88 0 0.0 0.0 0.00 0.00 0.00 68 1016.3
20260902233453 89 0 0.0 0.0 0.00 0.00 0.00 68 1016.3
20260902232954 89 0 0.0 0.0 0.00 0.00 0.00 67 1016.3
20260902232454 90 0 0.0 0.0 0.00 0.00 0.00 67 1016.4
20260902231954 90 0 0.0 0.0 0.00 0.00 0.00 66 1016.3
20260902231454 90 0 0.0 0.0 0.00 0.00 0.00 64 1016.4
20260902230954 91 0 0.0 0.0 0.00 0.00 0.00 64 1016.4
20260902230453 91 0 0.0 0.0 0.00 0.00 0.00 65 1016.3
20260902225954 91 0 0.0 0.0 0.00 0.00 0.00 65 1016.3
20260902224953 91 0 0.0 0.0 0.00 0.00 0.00 62 1016.4
20260902224454 92 0 0.0 0.0 0.00 0.00 0.00 62 1016.5
20260902223954 92 0 0.0 0.0 0.00 0.00 0.00 61 1016.4
20260902222954 92 0 0.0 0.0 0.00 0.00 0.00 61 1016.3
20260902221454 92 0 0.0 0.0 0.00 0.00 0.00 57 1016.3
20260902220954 92 0 0.0 0.0 0.00 0.00 0.00 57 1016.4
20260902220454 93 0 0.0 0.0 0.00 0.00 0.00 58 1016.5
20260902215953 93 0 0.0 0.0 0.00 0.00 0.00 58 1016.5
20260902215454 93 0 0.0 0.0 0.00 0.00 0.00 57 1016.5
20260902214954 92 0 0.0 0.0 0.00 0.00 0.00 56 1016.5
20260902213954 93 0 0.0 0.0 0.00 0.00 0.00 54 1016.5
20260902213454 93 0 0.0 0.0 0.00 0.00 0.00 53 1016.6
20260902212954 93 0 0.0 0.0 0.00 0.00 0.00 55 1016.6
20260902212454 93 0 0.0 0.0 0.00 0.00 0.00 54 1016.5
20260902211954 93 0 0.0 0.0 0.00 0.00 0.00 55 1016.6
20260902211454 93 0 0.0 0.0 0.00 0.00 0.00 56 1016.6
20260902210954 93 0 0.0 0.0 0.00 0.00 0.00 55 1016.7
20260902210454 93 0 0.0 0.0 0.00 0.00 0.00 54 1016.7
20260902205954 93 0 0.0 0.0 0.00 0.00 0.00 52 1016.7
20260902205454 93 0 0.0 0.0 0.00 0.00 0.00 52 1016.8
20260902204954 93 0 0.0 0.0 0.00 0.00 0.00 55 1016.8
20260902204454 93 0 0.0 0.0 0.00 0.00 0.00 54 1016.8
20260902203954 93 0 0.0 0.0 0.00 0.00 0.00 55 1016.9
20260902202954 93 0 0.0 0.0 0.00 0.00 0.00 54 1017.0
20260902201454 93 0 0.0 0.0 0.00 0.00 0.00 55 1017.0
20260902200954 93 0 0.0 0.0 0.00 0.00 0.00 54 1017.0
20260902200454 93 0 0.0 0.0 0.00 0.00 0.00 56 1017.1
20260902195454 92 0 0.0 0.0 0.00 0.00 0.00 55 1017.2
20260902194954 92 0 0.0 0.0 0.00 0.00 0.00 59 1017.3
20260902193954 91 0 0.0 0.0 0.00 0.00 0.00 56 1017.4
20260902193453 92 0 0.0 0.0 0.00 0.00 0.00 55 1017.5
20260902192954 93 0 0.0 0.0 0.00 0.00 0.00 55 1017.5
20260902192454 93 0 0.0 0.0 0.00 0.00 0.00 54 1017.6
20260902191954 93 0 0.0 0.0 0.00 0.00 0.00 56 1017.7
20260902191454 92 0 0.0 0.0 0.00 0.00 0.00 56 1017.7
20260902190954 92 0 0.0 0.0 0.00 0.00 0.00 55 1017.8
20260902190454 92 0 0.0 0.0 0.00 0.00 0.00 55 1017.8
20260902185954 92 0 0.0 0.0 0.00 0.00 0.00 55 1017.8
20260902185454 92 0 0.0 0.0 0.00 0.00 0.00 56 1017.8
20260902183954 91 0 0.0 0.0 0.00 0.00 0.00 58 1017.9
20260902183454 91 0 0.0 0.0 0.00 0.00 0.00 56 1017.9
20260902182954 91 0 0.0 0.0 0.00 0.00 0.00 57 1018.0
20260902182454 91 0 0.0 0.0 0.00 0.00 0.00 58 1018.0
20260902181954 91 0 0.0 0.0 0.00 0.00 0.00 58 1018.1
20260902181454 91 0 0.0 0.0 0.00 0.00 0.00 60 1018.1
20260902180954 91 0 0.0 0.0 0.00 0.00 0.00 61 1018.1
20260902180454 90 0 0.0 0.0 0.00 0.00 0.00 61 1018.2
20260902174954 91 0 0.0 0.0 0.00 0.00 0.00 59 1018.3
20260902174454 91 0 0.0 0.0 0.00 0.00 0.00 59 1018.3
20260902173954 91 0 0.0 0.0 0.00 0.00 0.00 59 1018.5
20260902173454 91 0 0.0 0.0 0.00 0.00 0.00 60 1018.6
20260902172953 91 0 0.0 0.0 0.00 0.00 0.00 60 1018.6
20260902172454 90 0 0.0 0.0 0.00 0.00 0.00 60 1018.6
20260902171954 90 0 0.0 0.0 0.00 0.00 0.00 62 1018.7
20260902171454 90 0 0.0 0.0 0.00 0.00 0.00 60 1018.6
20260902170954 90 0 0.0 0.0 0.00 0.00 0.00 61 1018.7
20260902165954 90 0 0.0 0.0 0.00 0.00 0.00 66 1018.7
20260902165454 89 0 0.0 0.0 0.00 0.00 0.00 65 1018.8
20260902164954 89 0 0.0 0.0 0.00 0.00 0.00 65 1018.8
20260902164454 89 0 0.0 0.0 0.00 0.00 0.00 62 1018.9
20260902163953 89 0 0.0 0.0 0.00 0.00 0.00 65 1018.8
20260902163454 89 0 0.0 0.0 0.00 0.00 0.00 65 1018.9
20260902162954 88 0 0.0 0.0 0.00 0.00 0.00 69 1018.9
20260902162454 88 0 0.0 0.0 0.00 0.00 0.00 67 1018.9
20260902161954 88 0 0.0 0.0 0.00 0.00 0.00 67 1018.9
20260902161454 88 0 0.0 0.0 0.00 0.00 0.00 68 1019.0
20260902160454 88 0 0.0 0.0 0.00 0.00 0.00 68 1019.1
20260902155955 87 0 0.0 0.0 0.00 0.00 0.00 68 1019.0
20260902155454 87 0 0.0 0.0 0.00 0.00 0.00 71 1019.1
20260902154954 87 0 0.0 0.0 0.00 0.00 0.00 69 1019.2
20260902154454 87 0 0.0 0.0 0.00 0.00 0.00 70 1019.1
20260902153454 87 0 0.0 0.0 0.00 0.00 0.00 70 1019.1
20260902152954 86 0 0.0 0.0 0.00 0.00 0.00 70 1019.2
20260902150954 86 0 0.0 0.0 0.00 0.00 0.00 70 1019.2
20260902150454 85 0 0.0 0.0 0.00 0.00 0.00 73 1019.3
20260902145954 85 0 0.0 0.0 0.00 0.00 0.00 71 1019.3
20260902144954 85 0 0.0 0.0 0.00 0.00 0.00 73 1019.3
20260902144454 84 0 0.0 0.0 0.00 0.00 0.00 73 1019.3
20260902143455 83 0 0.0 0.0 0.00 0.00 0.00 75 1019.2
20260902142954 83 0 0.0 0.0 0.00 0.00 0.00 76 1019.2
20260902142454 83 0 0.0 0.0 0.00 0.00 0.00 77 1019.1
20260902141954 82 0 0.0 0.0 0.00 0.00 0.00 77 1019.1
20260902141454 82 0 0.0 0.0 0.00 0.00 0.00 77 1019.1
20260902140454 82 0 0.0 0.0 0.00 0.00 0.00 77 1019.2
20260902135954 81 0 0.0 0.0 0.00 0.00 0.00 77 1019.2
20260902135454 81 0 0.0 0.0 0.00 0.00 0.00 78 1019.2
20260902134954 81 0 0.0 0.0 0.00 0.00 0.00 77 1019.2
20260902134454 80 0 0.0 0.0 0.00 0.00 0.00 78 1019.1
20260902133954 80 0 0.0 0.0 0.00 0.00 0.00 79 1019.1
20260902132954 80 0 0.0 0.0 0.00 0.00 0.00 79 1019.1
20260902132454 79 0 0.0 0.0 0.00 0.00 0.00 80 1019.1
20260902131954 79 0 0.0 0.0 0.00 0.00 0.00 80 1019.1
20260902131454 79 0 0.0 0.0 0.00 0.00 0.00 81 1019.0
20260902130955 78 0 0.0 0.0 0.00 0.00 0.00 81 1019.1
20260902130454 78 0 0.0 0.0 0.00 0.00 0.00 81 1019.1
20260902125954 78 0 0.0 0.0 0.00 0.00 0.00 82 1019.1
20260902125454 77 0 0.0 0.0 0.00 0.00 0.00 83 1019.1
20260902124954 76 0 0.0 0.0 0.00 0.00 0.00 84 1019.0
20260902123954 76 0 0.0 0.0 0.00 0.00 0.00 86 1018.9
20260902123454 75 0 0.0 0.0 0.00 0.00 0.00 87 1018.9
20260902121954 74 0 0.0 0.0 0.00 0.00 0.00 89 1018.8
20260902121454 74 0 0.0 0.0 0.00 0.00 0.00 90 1018.9
20260902120954 73 0 0.0 0.0 0.00 0.00 0.00 90 1018.8
20260902120454 73 0 0.0 0.0 0.00 0.00 0.00 91 1018.8
20260902115954 72 0 0.0 0.0 0.00 0.00 0.00 91 1018.7
20260902115454 72 0 0.0 0.0 0.00 0.00 0.00 91 1018.7
20260902114954 72 0 0.0 0.0 0.00 0.00 0.00 91 1018.7
20260902114454 72 0 0.0 0.0 0.00 0.00 0.00 91 1018.6
20260902113955 71 0 0.0 0.0 0.00 0.00 0.00 91 1018.5
20260902113454 71 0 0.0 0.0 0.00 0.00 0.00 91 1018.5
20260902112954 71 0 0.0 0.0 0.00 0.00 0.00 91 1018.4
20260902112454 71 0 0.0 0.0 0.00 0.00 0.00 91 1018.4
20260902111454 71 0 0.0 0.0 0.00 0.00 0.00 91 1018.4
20260902110954 71 0 0.0 0.0 0.00 0.00 0.00 91 1018.3
20260902110454 71 0 0.0 0.0 0.00 0.00 0.00 91 1018.3
20260902105954 71 0 0.0 0.0 0.00 0.00 0.00 91 1018.3
20260902105454 71 0 0.0 0.0 0.00 0.00 0.00 91 1018.3
20260902104954 71 0 0.0 0.0 0.00 0.00 0.00 90 1018.3
20260902104454 71 0 0.0 0.0 0.00 0.00 0.00 90 1018.3
20260902103954 71 0 0.0 0.0 0.00 0.00 0.00 90 1018.3
20260902103455 71 0 0.0 0.0 0.00 0.00 0.00 90 1018.4
20260902102955 71 0 0.0 0.0 0.00 0.00 0.00 90 1018.3
20260902102454 71 0 0.0 0.0 0.00 0.00 0.00 90 1018.3
20260902101954 71 0 0.0 0.0 0.00 0.00 0.00 90 1018.3
20260902101454 71 0 0.0 0.0 0.00 0.00 0.00 90 1018.2
20260902100954 71 0 0.0 0.0 0.00 0.00 0.00 90 1018.2
20260902100454 71 0 0.0 0.0 0.00 0.00 0.00 90 1018.2
20260902095954 71 0 0.0 0.0 0.00 0.00 0.00 90 1018.2
20260902095454 71 0 0.0 0.0 0.00 0.00 0.00 90 1018.1
20260902094954 71 0 0.0 0.0 0.00 0.00 0.00 90 1018.1
20260902094454 71 0 0.0 0.0 0.00 0.00 0.00 90 1018.1
20260902093954 71 0 0.0 0.0 0.00 0.00 0.00 90 1018.1
20260902093454 71 0 0.0 0.0 0.00 0.00 0.00 90 1018.1
20260902092954 71 0 0.0 0.0 0.00 0.00 0.00 90 1018.0
20260902092454 72 0 0.0 0.0 0.00 0.00 0.00 90 1018.2
20260902091954 72 0 0.0 0.0 0.00 0.00 0.00 90 1018.2
20260902091454 72 0 0.0 0.0 0.00 0.00 0.00 90 1018.1
20260902090955 72 0 0.0 0.0 0.00 0.00 0.00 90 1018.1
20260902090454 72 0 0.0 0.0 0.00 0.00 0.00 90 1018.0
20260902085955 72 0 0.0 0.0 0.00 0.00 0.00 90 1017.9
20260902084954 72 0 0.0 0.0 0.00 0.00 0.00 90 1017.9
20260902084454 72 0 0.0 0.0 0.00 0.00 0.00 90 1017.9
20260902083954 72 0 0.0 0.0 0.00 0.00 0.00 89 1017.7
20260902083454 72 0 0.0 0.0 0.00 0.00 0.00 89 1017.7
20260902082954 72 0 0.0 0.0 0.00 0.00 0.00 89 1017.6
20260902082454 72 0 0.0 0.0 0.00 0.00 0.00 89 1017.6
20260902081954 72 0 0.0 0.0 0.00 0.00 0.00 89 1017.6
20260902081454 72 0 0.0 0.0 0.00 0.00 0.00 89 1017.6
20260902080954 72 0 0.0 0.0 0.00 0.00 0.00 89 1017.6
20260902080454 72 0 0.0 0.0 0.00 0.00 0.00 89 1017.5
20260902075954 72 0 0.0 0.0 0.00 0.00 0.00 89 1017.5
20260902075454 72 0 0.0 0.0 0.00 0.00 0.00 89 1017.4
20260902074454 72 0 0.0 0.0 0.00 0.00 0.00 89 1017.5
20260902073954 72 0 0.0 0.0 0.00 0.00 0.00 89 1017.4
20260902072954 72 0 0.0 0.0 0.00 0.00 0.00 88 1017.4
20260902072454 72 0 0.0 0.0 0.00 0.00 0.00 88 1017.5
20260902071954 73 0 0.0 0.0 0.00 0.00 0.00 88 1017.5
20260902071454 73 0 0.0 0.0 0.00 0.00 0.00 88 1017.4
20260902070954 73 0 0.0 0.0 0.00 0.00 0.00 88 1017.5
20260902065955 73 0 0.0 0.0 0.00 0.00 0.00 88 1017.5
20260902065455 73 0 0.0 0.0 0.00 0.00 0.00 88 1017.4
20260902064954 73 0 0.0 0.0 0.00 0.00 0.00 87 1017.4
20260902064454 73 0 0.0 0.0 0.00 0.00 0.00 87 1017.4
20260902063954 73 0 0.0 0.0 0.00 0.00 0.00 87 1017.4
20260902063454 73 0 0.0 0.0 0.00 0.00 0.00 87 1017.4
20260902062954 73 0 0.0 0.0 0.00 0.00 0.00 87 1017.4
20260902062454 74 0 0.0 0.0 0.00 0.00 0.00 87 1017.5
20260902061954 74 0 0.0 0.0 0.00 0.00 0.00 87 1017.4
20260902061454 74 0 0.0 0.0 0.00 0.00 0.00 87 1017.4
20260902060954 74 0 0.0 0.0 0.00 0.00 0.00 87 1017.5
20260902055954 73 0 0.0 0.0 0.00 0.00 0.00 88 1017.5
20260902055454 73 0 0.0 0.0 0.00 0.00 0.00 88 1017.5
20260902054954 73 0 0.0 0.0 0.00 0.00 0.00 88 1017.6
20260902054454 73 0 0.0 0.0 0.00 0.00 0.00 87 1017.6
20260902053954 73 0 0.0 0.0 0.00 0.00 0.00 88 1017.6
20260902053454 74 0 0.0 0.0 0.00 0.00 0.00 87 1017.5
20260902052954 74 0 0.0 0.0 0.00 0.00 0.00 87 1017.6
20260902052454 74 0 0.0 0.0 0.00 0.00 0.00 87 1017.6
20260902051954 74 0 0.0 0.0 0.00 0.00 0.00 86 1017.6
20260902051454 74 0 0.0 0.0 0.00 0.00 0.00 86 1017.6
20260902050954 74 0 0.0 0.0 0.00 0.00 0.00 86 1017.6
20260902045454 75 0 0.0 0.0 0.00 0.00 0.00 86 1017.6
20260902044954 75 0 0.0 0.0 0.00 0.00 0.00 85 1017.6
20260902044454 75 0 0.0 0.0 0.00 0.00 0.00 85 1017.6
20260902043954 75 0 0.0 0.0 0.00 0.00 0.00 85 1017.5
20260902043454 75 0 0.0 0.0 0.00 0.00 0.00 85 1017.6
20260902042954 75 0 0.0 0.0 0.00 0.00 0.00 85 1017.5
20260902042454 75 0 0.0 0.0 0.00 0.00 0.00 85 1017.5
20260902041954 75 0 0.0 0.0 0.00 0.00 0.00 84 1017.6
20260902041454 76 0 0.0 0.0 0.00 0.00 0.00 84 1017.6
20260902040955 76 0 0.0 0.0 0.00 0.00 0.00 83 1017.6
20260902040454 76 0 0.0 0.0 0.00 0.00 0.00 83 1017.6
20260902035455 77 0 0.0 0.0 0.00 0.00 0.00 82 1017.6
20260902034454 77 0 0.0 0.0 0.00 0.00 0.00 80 1017.6
20260902033954 78 0 0.0 0.0 0.00 0.00 0.00 80 1017.6
20260902033454 78 0 0.0 0.0 0.00 0.00 0.00 79 1017.6
20260902032955 78 0 0.0 0.0 0.00 0.00 0.00 79 1017.6
20260902032454 79 0 0.0 0.0 0.00 0.00 0.00 78 1017.6
20260902031954 79 0 0.0 0.0 0.00 0.00 0.00 78 1017.5
20260902030954 80 0 0.0 0.0 0.00 0.00 0.00 77 1017.6
20260902025954 80 0 0.0 0.0 0.00 0.00 0.00 77 1017.5
20260902025454 80 0 0.0 0.0 0.00 0.00 0.00 77 1017.6
20260902024455 80 0 0.0 0.0 0.00 0.00 0.00 78 1017.6
20260902023954 80 0 0.0 0.0 0.00 0.00 0.00 78 1017.6
20260902023455 80 0 0.0 0.0 0.00 0.00 0.00 78 1017.6
20260902022954 80 0 0.0 0.0 0.00 0.00 0.00 79 1017.6
20260902022455 80 0 0.0 0.0 0.00 0.00 0.00 80 1017.6
20260902021955 79 0 0.0 0.0 0.00 0.00 0.00 81 1017.6
20260902021455 79 0 0.0 0.0 0.00 0.00 0.00 82 1017.5
20260902020955 78 0 0.0 0.0 0.00 0.00 0.00 84 1017.4
20260902015454 78 0 0.0 0.0 0.00 0.00 0.00 85 1017.5
20260902014954 78 0 0.0 0.0 0.00 0.00 0.00 85 1017.5
20260902014454 78 0 0.0 0.0 0.00 0.00 0.00 85 1017.5
20260902013954 78 0 0.0 0.0 0.00 0.00 0.00 85 1017.6